FW5881 Weather Reports


time (UTC)temp
F
wind
direction
speed
knots
gust
knots
rain 1hr
in
rain 24hr
in
rain mn
in
humidity
%
barometer
mb
20260906233800 69 209 2.6 6.1 0.00 0.00 0.00 47 1013.7
20260906232802 70 194 3.5 5.2 0.00 0.00 0.00 46 1013.6
20260906231758 70 185 3.5 7.8 0.00 0.00 0.00 45 1013.8
20260906230758 70 193 6.1 13.0 0.00 0.00 0.00 42 1013.7
20260906225756 71 237 5.2 11.3 0.00 0.00 0.00 42 1014.3
20260906224752 71 233 4.3 9.6 0.00 0.00 0.00 42 1014.5
20260906222751 71 239 4.3 8.7 0.00 0.00 0.00 41 1014.7
20260906221749 72 203 5.2 11.3 0.00 0.00 0.00 40 1014.8
20260906214745 72 267 7.8 13.0 0.00 0.00 0.00 39 1015.2
20260906213744 71 262 7.0 11.3 0.00 0.00 0.00 40 1015.0
20260906212744 72 212 8.7 13.9 0.00 0.00 0.00 39 1015.2
20260906211742 72 207 8.7 14.8 0.00 0.00 0.00 38 1015.4
20260906210742 73 262 7.0 13.9 0.00 0.00 0.00 40 1015.8
20260906205742 72 226 8.7 13.0 0.00 0.00 0.00 40 1015.9
20260906204740 72 207 9.6 16.5 0.00 0.00 0.00 36 1015.6
20260906203735 72 235 9.6 15.6 0.00 0.00 0.00 36 1015.8
20260906202733 72 217 9.6 15.6 0.00 0.00 0.00 38 1015.9
20260906201734 72 241 11.3 19.1 0.00 0.00 0.00 38 1015.8
20260906200731 72 211 9.6 15.6 0.00 0.00 0.00 38 1015.9
20260906195730 72 162 8.7 18.2 0.00 0.00 0.00 37 1015.8
20260906193728 73 185 12.2 24.3 0.00 0.00 0.00 36 1016.1
20260906191726 73 180 12.2 20.0 0.00 0.00 0.00 33 1016.2
20260906190722 74 233 13.0 20.9 0.00 0.00 0.00 33 1016.9
20260906185721 74 154 7.8 20.0 0.00 0.00 0.00 34 1016.9
20260906184720 71 166 7.8 16.5 0.00 0.00 0.00 35 1016.0
20260906182717 73 180 13.0 26.1 0.00 0.00 0.00 33 1016.5
20260906181717 74 237 11.3 20.0 0.00 0.00 0.00 30 1017.2
20260906180713 74 193 10.4 18.2 0.00 0.00 0.00 31 1016.9
20260906175712 74 185 10.4 20.0 0.00 0.00 0.00 32 1017.0
20260906174713 74 244 11.3 20.0 0.00 0.00 0.00 32 1016.9
20260906173709 74 148 10.4 21.7 0.00 0.00 0.00 36 1017.6
20260906172707 74 228 10.4 22.6 0.00 0.00 0.00 32 1017.5
20260906171707 74 212 9.6 17.4 0.00 0.00 0.00 32 1017.3
20260906170708 73 175 8.7 19.1 0.00 0.00 0.00 36 1017.6
20260906165703 73 210 9.6 19.1 0.00 0.00 0.00 34 1017.5
20260906164702 73 180 8.7 17.4 0.00 0.00 0.00 35 1017.6
20260906163701 72 154 7.8 17.4 0.00 0.00 0.00 38 1017.6
20260906162700 71 143 9.6 17.4 0.00 0.00 0.00 37 1017.2
20260906161658 71 200 7.0 15.6 0.00 0.00 0.00 38 1017.5
20260906160656 71 180 7.0 16.5 0.00 0.00 0.00 37 1017.3
20260906155657 71 170 5.2 12.2 0.00 0.00 0.00 40 1017.6
20260906154653 69 185 4.3 8.7 0.00 0.00 0.00 42 1016.9
20260906153651 67 208 2.6 7.8 0.00 0.00 0.00 47 1016.1
20260906152652 65 249 1.7 6.1 0.00 0.00 0.00 45 1015.5
20260906151652 63 90 1.7 4.3 0.00 0.00 0.00 45 1014.9
20260906150648 62 198 1.7 4.3 0.00 0.00 0.00 49 1014.2
20260906145638 60 308 2.6 6.1 0.00 0.00 0.00 51 1013.3
20260906144635 58 315 2.6 6.1 0.00 0.00 0.00 52 1012.8
20260906143637 57 303 1.7 4.3 0.00 0.00 0.00 56 1012.2
20260906142637 56 318 0.0 1.7 0.00 0.00 0.00 54 1011.9
20260906141628 55 292 0.0 1.7 0.00 0.00 0.00 54 1011.5
20260906134555 53 23 0.0 1.7 0.00 0.00 0.00 56 1010.4
20260906133553 52 180 0.0 0.9 0.00 0.00 0.00 56 1010.2
20260906132551 52 180 0.0 2.6 0.00 0.00 0.00 56 1010.1
20260906131552 52 180 0.0 0.0 0.00 0.00 0.00 55 1010.1
20260906130551 51 180 0.0 0.0 0.00 0.00 0.00 56 1009.7
20260906125545 52 180 0.0 1.7 0.00 0.00 0.00 56 1009.9
20260906124543 52 180 0.0 0.9 0.00 0.00 0.00 54 1009.9
20260906123509 52 180 0.0 2.6 0.00 0.00 0.00 54 1010.1
20260906122457 52 180 0.0 1.7 0.00 0.00 0.00 54 1009.9
20260906121453 52 180 0.9 2.6 0.00 0.00 0.00 54 1009.8
20260906115435 52 180 0.0 1.7 0.00 0.00 0.00 54 1009.8
20260906114410 51 180 0.0 2.6 0.00 0.00 0.00 55 1009.6
20260906113348 51 180 0.9 3.5 0.00 0.00 0.00 55 1009.8
20260906112344 51 180 0.0 0.9 0.00 0.00 0.00 55 1009.6
20260906111342 51 180 0.0 1.7 0.00 0.00 0.00 55 1009.5
20260906110338 51 180 1.7 3.5 0.00 0.00 0.00 56 1009.5
20260906104318 51 180 0.9 3.5 0.00 0.00 0.00 56 1009.2
20260906102318 50 180 0.9 4.3 0.00 0.00 0.00 58 1008.8
20260906101315 50 180 1.7 5.2 0.00 0.00 0.00 59 1008.7
20260906100312 51 180 0.9 3.5 0.00 0.00 0.00 58 1008.8
20260906094306 51 180 1.7 5.2 0.00 0.00 0.00 56 1009.0
20260906093301 51 180 1.7 3.5 0.00 0.00 0.00 57 1008.8
20260906092259 51 180 1.7 3.5 0.00 0.00 0.00 58 1008.8
20260906091254 51 180 0.9 3.5 0.00 0.00 0.00 57 1008.8
20260906085252 51 180 0.9 3.5 0.00 0.00 0.00 58 1008.6
20260906084251 51 180 0.0 0.9 0.00 0.00 0.00 59 1008.6
20260906083252 51 180 0.0 1.7 0.00 0.00 0.00 59 1008.7
20260906082251 51 180 0.0 2.6 0.00 0.00 0.00 58 1009.0
20260906081249 52 180 0.0 0.9 0.00 0.00 0.00 57 1009.2
20260906080250 52 180 0.9 2.6 0.00 0.00 0.00 57 1009.2
20260906075250 52 180 0.9 2.6 0.00 0.00 0.00 57 1009.2
20260906074250 53 180 0.9 1.7 0.00 0.00 0.00 56 1009.5
20260906073247 53 180 0.9 1.7 0.00 0.00 0.00 51 1009.8
20260906072248 54 63 1.7 4.3 0.00 0.00 0.00 51 1009.7
20260906071248 54 38 0.9 3.5 0.00 0.00 0.00 51 1009.7
20260906070247 54 62 0.9 2.6 0.00 0.00 0.00 51 1009.7
20260906064246 53 180 0.9 3.5 0.00 0.00 0.00 51 1009.5
20260906063243 53 25 0.9 2.6 0.00 0.00 0.00 52 1009.5
20260906062242 54 39 0.9 2.6 0.00 0.00 0.00 51 1009.7
20260906061242 54 39 0.9 4.3 0.00 0.00 0.00 51 1009.7
20260906060245 55 39 0.9 3.5 0.00 0.00 0.00 49 1009.9
20260906055240 55 37 0.9 3.5 0.00 0.00 0.00 49 1009.9
20260906054229 54 327 0.9 3.5 0.00 0.00 0.00 50 1009.7
20260906053229 55 35 0.9 3.5 0.00 0.00 0.00 51 1009.9
20260906052216 57 33 0.9 2.6 0.00 0.00 0.00 49 1010.5
20260906051217 57 337 0.0 1.7 0.00 0.00 0.00 45 1010.5
20260906050220 57 39 0.0 0.9 0.00 0.00 0.00 46 1010.5
20260906045218 56 39 0.9 3.5 0.00 0.00 0.00 45 1010.4
20260906044213 57 72 0.0 2.6 0.00 0.00 0.00 46 1010.9
20260906043214 58 78 0.0 0.0 0.00 0.00 0.00 43 1010.9
20260906042151 59 78 0.0 0.9 0.00 0.00 0.00 43 1011.5
20260906041122 58 72 0.9 2.6 0.00 0.00 0.00 44 1011.0
20260906040119 58 43 0.0 2.6 0.00 0.00 0.00 47 1010.9
20260906034055 59 39 0.9 2.6 0.00 0.00 0.00 44 1011.2
20260906033053 60 52 0.9 3.5 0.00 0.00 0.00 44 1011.2
20260906032052 60 48 0.9 2.6 0.00 0.00 0.00 43 1010.9
20260906031053 61 77 0.9 2.6 0.00 0.00 0.00 40 1011.3
20260906024052 65 113 0.0 0.0 0.00 0.00 0.00 34 1012.6
20260906023009 65 113 0.0 0.0 0.00 0.00 0.00 33 1012.4
20260906022007 66 113 0.0 0.0 0.00 0.00 0.00 34 1012.5
20260906015938 69 113 0.0 0.0 0.00 0.00 0.00 32 1013.7
20260906014929 71 113 0.0 1.7 0.00 0.00 0.00 31 1014.3
20260906013908 72 113 0.9 1.7 0.00 0.00 0.00 31 1014.8
20260906012910 73 113 0.0 1.7 0.00 0.00 0.00 31 1015.4
20260906011906 74 168 0.9 2.6 0.00 0.00 0.00 29 1015.9
20260906010901 76 191 2.6 5.2 0.00 0.00 0.00 27 1016.5
20260906005858 77 237 4.3 9.6 0.00 0.00 0.00 25 1016.7
20260906004853 78 215 5.2 11.3 0.00 0.00 0.00 24 1017.2
20260906003851 78 264 5.2 11.3 0.00 0.00 0.00 22 1017.2
20260906001848 79 237 5.2 11.3 0.00 0.00 0.00 23 1017.3
20260906000848 79 243 7.0 13.0 0.00 0.00 0.00 23 1017.3
20260905235847 79 252 7.0 12.2 0.00 0.00 0.00 22 1017.5